Change the Weather History Date:

Tuesday, June 17, 2014

  Actual Average Record
Temperature  
Mean Temperature 60 °F -  
Max Temperature 70 °F 69 °F 84 °F (1959)
Min Temperature 52 °F 46 °F 36 °F (2000)
Degree Days  
Heating Degree Days 4    
Growing Degree Days 10 (Base 50)    
Moisture  
Dew Point 45 °F    
Average Humidity 60    
Maximum Humidity 83    
Minimum Humidity 38    
Precipitation  
Precipitation 0.02 in - - ()
Sea Level Pressure  
Sea Level Pressure 29.36 in    
Wind  
Wind Speed 6 mph (North)    
Max Wind Speed 10 mph    
Max Gust Speed -    
Visibility 10 miles    
Events Rain    
Averages and records for this station are not official NWS values.
T = Trace of Precipitation, MM = Missing Value Source: NWS Daily Summary

Daily Weather History Graph

Daily Weather History Graph

Search for Another Location

Airport or City:

Trip Planner

Search our weather history database for the weather conditions in past years. The results will help you decide how hot, cold, wet, or windy it might be!

Date:

Astronomy

Jun. 17, 2014 Rise Set
Actual Time 3:03 AM AKDT 1:16 AM AKDT
Civil Twilight Sun does not rise Sun does not rise
Nautical Twilight Sun does not rise Sun does not rise
Astronomical Twilight Sun does not rise Sun does not rise
Moon 1:29 AM AKDT (6/17) 11:23 AM AKDT (6/17)
Length of Visible Light 24h 00m
Length of Day
22h 13m
Waning Gibbous, 72% of the Moon is Illuminated
Jun 17
Waning Gibbous
Jun 19
Last Quarter
Jun 27
New
Jul 5
First Quarter
Jul 12
Full

Hourly Weather History & Observations

Time (AKDT) Temp. Dew Point Humidity Pressure Visibility Wind Dir Wind Speed Gust Speed Precip Events Conditions
12:52 AM 54.0 °F 46.0 °F 75% 29.44 in 10.0 mi NE 3.5 mph - N/A   Scattered Clouds
1:52 AM 55.0 °F 48.0 °F 77% 29.43 in 9.0 mi NE 6.9 mph - 0.01 in Rain Light Rain
2:52 AM 53.1 °F 46.0 °F 77% 29.41 in 10.0 mi NNE 6.9 mph - 0.00 in   Partly Cloudy
3:52 AM 53.1 °F 48.0 °F 83% 29.41 in 10.0 mi NNW 3.5 mph - 0.00 in   Overcast
4:52 AM 53.1 °F 48.0 °F 83% 29.41 in 10.0 mi ESE 3.5 mph - N/A   Overcast
5:52 AM 52.0 °F 46.9 °F 83% 29.39 in 10.0 mi NE 5.8 mph - N/A   Overcast
6:52 AM 53.1 °F 46.9 °F 80% 29.37 in 10.0 mi NNE 9.2 mph - 0.00 in   Overcast
7:52 AM 54.0 °F 46.9 °F 77% 29.36 in 10.0 mi NNE 5.8 mph - N/A   Overcast
8:52 AM 55.9 °F 48.0 °F 75% 29.35 in 10.0 mi NNE 10.4 mph - 0.01 in   Mostly Cloudy
9:52 AM 57.9 °F 48.0 °F 70% 29.34 in 10.0 mi NNE 8.1 mph - N/A   Mostly Cloudy
10:52 AM 63.0 °F 46.0 °F 54% 29.33 in 10.0 mi NE 6.9 mph - N/A   Mostly Cloudy
11:52 AM 66.0 °F 46.0 °F 48% 29.33 in 10.0 mi ESE 6.9 mph - N/A   Mostly Cloudy
1:52 PM 69.1 °F 45.0 °F 42% 29.33 in 10.0 mi WSW 4.6 mph - N/A   Mostly Cloudy
2:52 PM 68.0 °F 44.1 °F 42% 29.32 in 10.0 mi Variable 5.8 mph - N/A   Mostly Cloudy
3:52 PM 66.0 °F 42.1 °F 42% 29.32 in 10.0 mi SW 6.9 mph - N/A   Mostly Cloudy
4:52 PM 66.9 °F 41.0 °F 39% 29.32 in 10.0 mi Variable 4.6 mph - N/A   Mostly Cloudy
5:52 PM 66.0 °F 44.1 °F 45% 29.32 in 10.0 mi West 8.1 mph - N/A   Mostly Cloudy
6:52 PM 66.0 °F 43.0 °F 43% 29.33 in 10.0 mi West 6.9 mph - N/A   Overcast
7:52 PM 64.9 °F 48.0 °F 54% 29.34 in 10.0 mi Variable 3.5 mph - N/A   Overcast
8:52 PM 66.0 °F 39.9 °F 38% 29.34 in 10.0 mi Variable 4.6 mph - N/A   Overcast
9:52 PM 64.0 °F 43.0 °F 46% 29.35 in 10.0 mi West 9.2 mph - N/A   Overcast
10:52 PM 61.0 °F 43.0 °F 52% 29.37 in 10.0 mi West 9.2 mph - N/A   Clear
11:52 PM 60.1 °F 46.0 °F 60% 29.39 in 10.0 mi West 9.2 mph - N/A   Mostly Cloudy